Location: Dzierzno
(50.6159°N, 19.2852°E)
Time: 00:14:08
(UTC+00:00)

USA 215 - Pass Details

Date: 18 November 2025
Orbit: 1101 x 1106 km, 123.0° (Epoch: 02 December)

Event Time Altitude Azimuth Distance (km) Brightness Sun altitude
Rises 16:00:27 0° 129° (SE) 3,914 5.8 -10.6°
Reaches altitude 10° 16:02:57 10° 132° (SE) 2,959 5.2 -11.0°
Maximum altitude 16:09:28 70° 216° (SW) 1,170 3.6 -12.0°
Drops below altitude 10° 16:16:02 10° 300° (WNW) 2,973 6.2 -13.0°
Sets 16:18:33 0° 303° (WNW) 3,934 6.8 -13.4°
